M I D A S
Marine Information and Data Acquisition System
Tripno 1567 of the Zeeleeuw from 2008-09-16 07:08:45 to 2008-09-16 13:56:45
Back to CruiseResearch ActivitiesStationsMapUnderway DataData graphs

EquipmentUnitsComment
TimeDGPSUTC
LatitudeDGPSDM.mWGS84
LongitudeDGPSDM.mWGS84
TemperatureSBE03/SBE38deg celciusITS90
ConductivitySBE21S/mITS90
SalinitySBE21 Practical Salinity Units
ChlorophylAChelsea fluorimeterg/lCalibrated in Aceton
Missing or incorrect values are displayed as -999
Sea surface data collected by the RV Zeeleeuw from 2008-09-16 07:08:45 to 2008-09-16 13:56:45
Time Latitude Longitude Temperature Conductivity Salinity ChlorophylA
2008-09-16 07:10:50 51°13.636 2°55.996 -999 -999 -999 -999
2008-09-16 07:12:50 51°13.689 2°55.802 -999 -999 -999 -999
2008-09-16 07:14:50 51°13.703 2°55.722 -999 -999 -999 -999
2008-09-16 07:16:50 51°13.863 2°55.615 -999 -999 -999 -999
2008-09-16 07:18:50 51°14.114 2°55.417 -999 -999 -999 -999
2008-09-16 07:20:50 51°14.324 2°55.127 -999 -999 -999 -999
2008-09-16 07:22:50 51°14.567 2°54.702 -999 -999 -999 -999
2008-09-16 07:24:50 51°14.892 2°54.333 -999 -999 -999 -999
2008-09-16 07:26:50 51°15.221 2°53.991 -999 -999 -999 -999
2008-09-16 07:28:50 51°15.571 2°53.71 -999 -999 -999 -999
2008-09-16 07:30:50 51°15.942 2°53.513 -999 -999 -999 -999
2008-09-16 07:32:50 51°16.308 2°53.29 -999 -999 -999 -999
2008-09-16 07:34:50 51°16.655 2°52.985 -999 -999 -999 -999
2008-09-16 07:36:50 51°16.988 2°52.67 -999 -999 -999 -999
2008-09-16 07:38:50 51°17.33 2°52.412 -999 -999 -999 -999
2008-09-16 07:40:50 51°17.697 2°52.329 -999 -999 -999 -999
2008-09-16 07:42:50 51°18.066 2°52.268 -999 -999 -999 -999
2008-09-16 07:44:50 51°18.394 2°52.4 -999 -999 -999 -999
2008-09-16 07:46:50 51°18.529 2°52.934 -999 -999 -999 -999
2008-09-16 07:48:50 51°18.67 2°53.465 -999 -999 -999 -999
2008-09-16 07:50:50 51°18.768 2°54.019 -999 -999 -999 -999
2008-09-16 07:52:50 51°18.873 2°54.569 -999 -999 -999 -999
2008-09-16 07:54:50 51°18.984 2°55.114 -999 -999 -999 -999
2008-09-16 07:56:50 51°19.102 2°55.654 -999 -999 -999 -999
2008-09-16 07:58:50 51°19.221 2°56.193 -999 -999 -999 -999
2008-09-16 08:00:50 51°19.341 2°56.734 -999 -999 -999 -999
2008-09-16 08:02:50 51°19.462 2°57.273 -999 -999 -999 -999
2008-09-16 08:04:50 51°19.591 2°57.806 -999 -999 -999 -999
2008-09-16 08:06:50 51°19.708 2°58.343 -999 -999 -999 -999
2008-09-16 08:08:50 51°19.841 2°58.864 -999 -999 -999 -999
2008-09-16 08:10:50 51°19.976 2°59.384 -999 -999 -999 -999
2008-09-16 08:12:50 51°20.108 2°59.911 -999 -999 -999 -999
2008-09-16 08:14:50 51°20.223 3°0.449 -999 -999 -999 -999
2008-09-16 08:16:50 51°20.352 3°0.964 -999 -999 -999 -999
2008-09-16 08:18:50 51°20.463 3°1.484 -999 -999 -999 -999
2008-09-16 08:20:50 51°20.593 3°1.994 -999 -999 -999 -999
2008-09-16 08:22:50 51°20.721 3°2.515 -999 -999 -999 -999
2008-09-16 08:24:50 51°20.836 3°3.052 -999 -999 -999 -999
2008-09-16 08:26:50 51°20.959 3°3.59 -999 -999 -999 -999
2008-09-16 08:28:50 51°21.097 3°4.117 -999 -999 -999 -999
2008-09-16 08:30:50 51°21.238 3°4.64 -999 -999 -999 -999
2008-09-16 08:32:50 51°21.358 3°5.171 -999 -999 -999 -999
2008-09-16 08:34:50 51°21.485 3°5.707 -999 -999 -999 -999
2008-09-16 08:36:50 51°21.629 3°6.229 -999 -999 -999 -999
2008-09-16 08:38:50 51°21.759 3°6.764 -999 -999 -999 -999
2008-09-16 08:40:50 51°21.862 3°7.313 -999 -999 -999 -999
2008-09-16 08:42:50 51°21.904 3°7.879 -999 -999 -999 -999
2008-09-16 08:44:50 51°21.939 3°8.459 -999 -999 -999 -999
2008-09-16 08:46:50 51°21.929 3°8.82 -999 -999 -999 -999
2008-09-16 08:48:50 51°21.891 3°8.901 -999 -999 -999 -999
2008-09-16 08:50:50 51°21.813 3°8.911 -999 -999 -999 -999
2008-09-16 08:52:50 51°21.757 3°8.721 -999 -999 -999 -999
2008-09-16 08:54:50 51°21.759 3°8.5 -999 -999 -999 -999
2008-09-16 08:56:50 51°21.762 3°8.287 -999 -999 -999 -999
2008-09-16 08:58:50 51°21.769 3°8.077 -999 -999 -999 -999
2008-09-16 09:00:50 51°21.778 3°7.871 -999 -999 -999 -999
2008-09-16 09:02:50 51°21.787 3°7.667 -999 -999 -999 -999
2008-09-16 09:04:50 51°21.796 3°7.462 -999 -999 -999 -999
2008-09-16 09:06:50 51°21.807 3°7.255 -999 -999 -999 -999
2008-09-16 09:08:50 51°21.817 3°7.045 -999 -999 -999 -999
2008-09-16 09:10:50 51°21.819 3°6.832 -999 -999 -999 -999
2008-09-16 09:12:50 51°21.813 3°6.616 -999 -999 -999 -999
2008-09-16 09:14:50 51°21.806 3°6.398 -999 -999 -999 -999
2008-09-16 09:16:50 51°21.8 3°6.179 -999 -999 -999 -999
2008-09-16 09:18:50 51°21.794 3°5.961 -999 -999 -999 -999
2008-09-16 09:20:50 51°21.787 3°5.744 -999 -999 -999 -999
2008-09-16 09:22:50 51°21.782 3°5.525 -999 -999 -999 -999
2008-09-16 09:24:50 51°21.777 3°5.306 -999 -999 -999 -999
2008-09-16 09:26:50 51°21.806 3°5.14 -999 -999 -999 -999
2008-09-16 09:28:50 51°21.834 3°5.063 -999 -999 -999 -999
2008-09-16 09:30:50 51°21.843 3°4.994 -999 -999 -999 -999
2008-09-16 09:32:50 51°21.843 3°4.926 -999 -999 -999 -999
2008-09-16 09:34:50 51°21.855 3°4.91 -999 -999 -999 -999
2008-09-16 09:36:50 51°21.816 3°5.064 -999 -999 -999 -999
2008-09-16 09:38:50 51°21.783 3°5.234 -999 -999 -999 -999
2008-09-16 09:40:50 51°21.776 3°5.396 -999 -999 -999 -999
2008-09-16 09:42:50 51°21.763 3°5.552 -999 -999 -999 -999
2008-09-16 09:44:50 51°21.667 3°5.639 -999 -999 -999 -999
2008-09-16 09:46:50 51°21.582 3°5.695 -999 -999 -999 -999
2008-09-16 09:48:50 51°21.498 3°5.754 -999 -999 -999 -999
2008-09-16 09:50:50 51°21.412 3°5.81 -999 -999 -999 -999
2008-09-16 09:52:50 51°21.327 3°5.868 -999 -999 -999 -999
2008-09-16 09:54:50 51°21.245 3°5.931 -999 -999 -999 -999
2008-09-16 09:56:50 51°21.156 3°5.982 -999 -999 -999 -999
2008-09-16 09:58:50 51°21.05 3°5.965 -999 -999 -999 -999
2008-09-16 10:00:50 51°20.95 3°5.886 -999 -999 -999 -999
2008-09-16 10:02:50 51°20.876 3°5.779 -999 -999 -999 -999
2008-09-16 10:04:50 51°20.84 3°5.64 -999 -999 -999 -999
2008-09-16 10:06:50 51°20.816 3°5.495 -999 -999 -999 -999
2008-09-16 10:08:50 51°20.793 3°5.349 -999 -999 -999 -999
2008-09-16 10:10:50 51°20.769 3°5.201 -999 -999 -999 -999
2008-09-16 10:12:50 51°20.748 3°5.056 -999 -999 -999 -999
2008-09-16 10:14:50 51°20.74 3°4.917 -999 -999 -999 -999
2008-09-16 10:16:50 51°20.745 3°4.792 -999 -999 -999 -999
2008-09-16 10:18:50 51°20.754 3°4.699 -999 -999 -999 -999
2008-09-16 10:20:50 51°20.753 3°4.628 -999 -999 -999 -999
2008-09-16 10:22:50 51°20.697 3°4.283 -999 -999 -999 -999
2008-09-16 10:24:50 51°20.583 3°3.646 -999 -999 -999 -999
2008-09-16 10:26:50 51°20.469 3°3.01 -999 -999 -999 -999
2008-09-16 10:28:50 51°20.349 3°2.372 -999 -999 -999 -999
2008-09-16 10:30:50 51°20.228 3°1.737 -999 -999 -999 -999
2008-09-16 10:32:50 51°20.087 3°1.106 -999 -999 -999 -999
2008-09-16 10:34:50 51°19.95 3°0.482 -999 -999 -999 -999
2008-09-16 10:36:50 51°19.806 2°59.855 -999 -999 -999 -999
2008-09-16 10:38:50 51°19.669 2°59.253 -999 -999 -999 -999
2008-09-16 10:40:50 51°19.534 2°58.627 -999 -999 -999 -999
2008-09-16 10:42:50 51°19.412 2°58 -999 -999 -999 -999
2008-09-16 10:44:50 51°19.284 2°57.381 -999 -999 -999 -999
2008-09-16 10:46:50 51°19.15 2°56.754 -999 -999 -999 -999
2008-09-16 10:48:50 51°19.025 2°56.128 -999 -999 -999 -999
2008-09-16 10:50:50 51°18.887 2°55.512 -999 -999 -999 -999
2008-09-16 10:52:50 51°18.749 2°54.901 -999 -999 -999 -999
2008-09-16 10:54:50 51°18.619 2°54.293 -999 -999 -999 -999
2008-09-16 10:56:50 51°18.502 2°53.667 -999 -999 -999 -999
2008-09-16 10:58:50 51°18.379 2°53.05 -999 -999 -999 -999
2008-09-16 11:00:50 51°18.248 2°52.456 -999 -999 -999 -999
2008-09-16 11:02:50 51°18.059 2°51.897 -999 -999 -999 -999
2008-09-16 11:04:50 51°17.826 2°51.393 -999 -999 -999 -999
2008-09-16 11:06:50 51°17.577 2°50.903 -999 -999 -999 -999
2008-09-16 11:08:50 51°17.329 2°50.424 -999 -999 -999 -999
2008-09-16 11:10:50 51°17.086 2°49.936 -999 -999 -999 -999
2008-09-16 11:12:50 51°16.801 2°49.493 -999 -999 -999 -999
2008-09-16 11:14:50 51°16.521 2°49.062 -999 -999 -999 -999
2008-09-16 11:16:50 51°16.294 2°48.574 -999 -999 -999 -999
2008-09-16 11:18:50 51°16.068 2°48.096 -999 -999 -999 -999
2008-09-16 11:20:50 51°15.84 2°47.637 -999 -999 -999 -999
2008-09-16 11:22:50 51°15.622 2°47.175 -999 -999 -999 -999
2008-09-16 11:24:50 51°15.408 2°46.718 -999 -999 -999 -999
2008-09-16 11:26:50 51°15.191 2°46.268 -999 -999 -999 -999
2008-09-16 11:28:50 51°14.984 2°45.807 -999 -999 -999 -999
2008-09-16 11:30:50 51°14.775 2°45.357 -999 -999 -999 -999
2008-09-16 11:32:50 51°14.559 2°44.919 -999 -999 -999 -999
2008-09-16 11:34:50 51°14.347 2°44.476 -999 -999 -999 -999
2008-09-16 11:36:50 51°14.134 2°44.034 -999 -999 -999 -999
2008-09-16 11:38:50 51°13.924 2°43.591 -999 -999 -999 -999
2008-09-16 11:40:50 51°13.72 2°43.142 -999 -999 -999 -999
2008-09-16 11:42:50 51°13.515 2°42.694 -999 -999 -999 -999
2008-09-16 11:44:50 51°13.315 2°42.244 -999 -999 -999 -999
2008-09-16 11:46:50 51°13.114 2°41.799 -999 -999 -999 -999
2008-09-16 11:48:50 51°12.908 2°41.359 -999 -999 -999 -999
2008-09-16 11:50:50 51°12.713 2°40.911 -999 -999 -999 -999
2008-09-16 11:52:50 51°12.517 2°40.465 -999 -999 -999 -999
2008-09-16 11:54:50 51°12.313 2°40.03 -999 -999 -999 -999
2008-09-16 11:56:50 51°12.116 2°39.585 -999 -999 -999 -999
2008-09-16 11:58:50 51°11.892 2°39.177 -999 -999 -999 -999
2008-09-16 13:00:50 51°10.352 2°36.233 -999 -999 -999 -999
2008-09-16 13:02:50 51°10.464 2°36.893 -999 -999 -999 -999
2008-09-16 13:04:50 51°10.578 2°37.609 -999 -999 -999 -999
2008-09-16 13:06:50 51°10.692 2°38.345 -999 -999 -999 -999
2008-09-16 13:08:50 51°10.805 2°39.081 -999 -999 -999 -999
2008-09-16 13:10:50 51°10.878 2°39.805 -999 -999 -999 -999
2008-09-16 13:12:50 51°10.966 2°40.521 -999 -999 -999 -999
2008-09-16 13:14:50 51°11.076 2°41.228 -999 -999 -999 -999
2008-09-16 13:16:50 51°11.164 2°41.94 -999 -999 -999 -999
2008-09-16 13:18:50 51°11.2 2°42.657 -999 -999 -999 -999
2008-09-16 13:20:50 51°11.274 2°43.366 -999 -999 -999 -999
2008-09-16 13:22:50 51°11.411 2°44.055 -999 -999 -999 -999
2008-09-16 13:24:50 51°11.555 2°44.742 -999 -999 -999 -999
2008-09-16 13:26:50 51°11.704 2°45.424 -999 -999 -999 -999
2008-09-16 13:28:50 51°11.835 2°46.115 -999 -999 -999 -999
2008-09-16 13:30:50 51°12.004 2°46.786 -999 -999 -999 -999
2008-09-16 13:32:50 51°12.187 2°47.451 -999 -999 -999 -999
2008-09-16 13:34:50 51°12.403 2°48.093 -999 -999 -999 -999
2008-09-16 13:36:50 51°12.62 2°48.737 -999 -999 -999 -999
2008-09-16 13:38:50 51°12.837 2°49.377 -999 -999 -999 -999
2008-09-16 13:40:50 51°13.055 2°50.013 -999 -999 -999 -999
2008-09-16 13:42:50 51°13.246 2°50.667 -999 -999 -999 -999
2008-09-16 13:44:50 51°13.446 2°51.316 -999 -999 -999 -999
2008-09-16 13:46:50 51°13.643 2°51.961 -999 -999 -999 -999
2008-09-16 13:48:50 51°13.846 2°52.595 -999 -999 -999 -999
2008-09-16 13:50:50 51°14.062 2°53.217 -999 -999 -999 -999
2008-09-16 13:52:50 51°14.29 2°53.82 -999 -999 -999 -999
2008-09-16 13:54:50 51°14.449 2°54.468 -999 -999 -999 -999